Back to catalog

MONOLITH

AliveScienceVLEO
NORAD 49052·PAYLOAD·🇺🇸 United States

Launched Jul 29, 2021 from Rocket Lab Launch Complex 1

Loading…

Next Passes (next 24 hours)

TLE

FreshSource: Space-Track

Epoch: Sep 14, 2026, 13:59 UTC

1 49052U 21068A   26257.58308878  .00004141  00000-0  25557-3 0  9993
2 49052  37.0221  87.5245 0003784 251.0534 108.9802 15.09903532280791

Track MONOLITH in real time with AllMySat

Download on the App Store